This demonstration page uses our WeatherBlox Daily Observations layout. Learn more.

40.92945, -100.16068

Hourly Observations for August 3, 2018

Temp ( °F °C ) Dew Point ( °F °C ) Humidity (%) Winds ( mph kmh ) Pressure ( in mb ) Visibility ( mi km ) Precip ( " mm )
12:15 am 00:15 Clear 75 24 62 16.6 63 63 S 14 22 29.85 1011 10 16.0934 0 0
12:35 am 00:35 Clear 74 23.6 62 16.8 66 66 S 12 19 29.85 1011 10 16.0934 0 0
12:55 am 00:55 Clear 74 23.5 63 17 67 67 S 12 19 29.85 1011 10 16.0934 0 0
1:15 am 01:15 Clear 74 23.2 63 17 68 68 S 12 19 29.85 1011 10 16.0934 0 0
1:35 am 01:35 Clear 73 22.9 63 17.1 70 70 S 13 20 29.88 1012 10 16.0934 0 0
1:55 am 01:55 Clear 73 22.6 63 17.2 72 72 S 9 15 29.88 1012 10 16.0934 0 0
2:15 am 02:15 Clear 73 22.5 63 17.2 72 72 S 9 15 29.88 1012 10 16.0934 0 0
2:35 am 02:35 Clear 73 22.7 63 17 70 70 S 12 19 29.88 1012 10 16.0934 0 0
2:55 am 02:55 Clear 72 22.4 63 17.1 72 72 S 12 19 29.88 1012 10 16.0934 0 0
3:15 am 03:15 Clear 72 22.1 63 17 73 73 S 13 20 29.88 1012 10 16.0934 0 0
3:35 am 03:35 Clear 71 21.9 63 17 74 74 S 10 17 29.88 1012 10 16.0934 0 0
3:55 am 03:55 Clear 70 21.2 62 16.9 77 77 S 9 15 29.88 1012 10 16.0934 0 0
4:15 am 04:15 Clear 70 21 62 16.7 77 77 S 8 13 29.88 1012 10 16.0934 0 0
4:35 am 04:35 Clear 69 20.5 62 16.6 78 78 S 8 13 29.88 1012 10 16.0934 0 0
4:55 am 04:55 Clear 69 20.7 62 16.5 77 77 S 8 13 29.88 1012 10 16.0934 0 0
5:15 am 05:15 Clear 69 20.5 62 16.5 78 78 S 8 13 29.88 1012 10 16.0934 0 0
5:35 am 05:35 Clear 68 20 61 16.2 79 79 SSE 6 9 29.88 1012 10 16.0934 0 0
5:55 am 05:55 Clear 67 19.4 61 16.2 82 82 S 5 7 29.91 1013 10 16.0934 0 0
6:15 am 06:15 Clear 67 19.4 61 16.1 81 81 S 5 7 29.91 1013 10 16.0934 0 0
6:35 am 06:35 Clear 67 19.6 61 16.3 81 81 S 7 11 29.88 1012 10 16.0934 0 0
6:55 am 06:55 Sunny 68 19.8 61 16.2 80 80 S 6 9 29.88 1012 10 16.0934 0 0
7:15 am 07:15 Sunny 68 20 61 16.3 79 79 S 8 13 29.88 1012 10 16.0934 0 0
7:35 am 07:35 Sunny 69 20.7 62 16.4 77 77 S 8 13 29.88 1012 10 16.0934 0 0
7:55 am 07:55 Sunny 70 21.3 62 16.5 74 74 S 9 15 29.88 1012 10 16.0934 0 0
8:15 am 08:15 Sunny 72 22 62 16.6 72 72 S 10 17 29.88 1012 10 16.0934 0 0
8:35 am 08:35 Sunny 73 22.7 62 16.7 69 69 S 10 17 29.88 1012 10 16.0934 0 0
8:55 am 08:55 Sunny 74 23.5 62 16.6 65 65 S 14 22 29.85 1011 10 16.0934 0 0
9:15 am 09:15 Sunny 75 24.1 62 16.6 63 63 S 13 20 29.85 1011 10 16.0934 0 0
9:35 am 09:35 Sunny 76 24.7 62 16.8 62 62 S 13 20 29.85 1011 10 16.0934 0 0
9:55 am 09:55 Sunny 77 25.2 62 16.8 60 60 S 14 22 29.83 1010 10 16.0934 0 0
10:15 am 10:15 Sunny 79 26.2 63 17.1 57 57 SSW 14 22 29.83 1010 10 16.0934 0 0
10:35 am 10:35 Sunny 80 26.7 63 17.3 56 56 SSW 12 19 29.8 1009 10 16.0934 0 0
10:55 am 10:55 Sunny 81 27.4 63 17.3 54 54 S 12 19 29.8 1009 10 16.0934 0 0
11:15 am 11:15 Sunny 82 28 63 17.4 53 53 S 12 19 29.8 1009 10 16.0934 0 0
11:35 am 11:35 Sunny 83 28.4 64 17.8 53 53 S 15 24 29.8 1009 10 16.0934 0 0
11:55 am 11:55 Sunny 84 29 64 17.7 51 51 S 13 20 29.8 1009 10 16.0934 0 0
12:15 pm 12:15 Sunny 85 29.5 65 18.2 51 51 SSE 14 22 29.8 1009 10 16.0934 0 0
12:35 pm 12:35 Sunny 85 29.6 65 18.3 51 51 S 13 20 29.8 1009 10 16.0934 0 0
12:55 pm 12:55 Sunny 87 30.5 65 18.3 48 48 SSE 16 26 29.74 1007 10 16.0934 0 0
1:15 pm 13:15 Sunny 87 30.7 66 18.8 49 49 SSE 14 22 29.74 1007 10 16.0934 0 0
1:35 pm 13:35 Sunny 88 31.1 66 19 49 49 SSE 13 20 29.74 1007 10 16.0934 0 0
1:55 pm 13:55 Sunny 88 31.1 66 19 49 49 SSE 13 20 29.74 1007 10 16.0934 0 0
2:15 pm 14:15 Sunny 88 31.2 67 19.5 50 50 SSE 16 26 29.74 1007 10 16.0934 0 0
2:35 pm 14:35 Sunny 89 31.6 67 19.5 49 49 SSE 15 24 29.74 1007 10 16.0934 0 0
2:55 pm 14:55 Sunny 89 31.8 67 19.6 48 48 SSE 20 31 29.74 1007 10 16.0934 0 0
3:15 pm 15:15 Sunny 89 31.9 67 19.2 47 47 SSE 18 30 29.74 1007 10 16.0934 0 0
3:35 pm 15:35 Sunny 88 31.2 66 19.1 49 49 SSE 20 31 29.71 1006 10 16.0934 0 0
3:55 pm 15:55 Sunny 88 31.3 67 19.4 49 49 SSE 17 28 29.71 1006 10 16.0934 0 0
4:15 pm 16:15 Sunny 88 31 66 19 49 49 S 16 26 29.71 1006 10 16.0934 0 0
4:35 pm 16:35 Sunny 88 31.1 66 18.9 48 48 S 16 26 29.71 1006 10 16.0934 0 0
4:55 pm 16:55 Sunny 89 31.4 67 19.2 48 48 SSE 13 20 29.71 1006 10 16.0934 0 0
5:15 pm 17:15 Sunny 90 32 65 18.6 45 45 SSE 20 31 29.71 1006 10 16.0934 0 0
5:35 pm 17:35 Sunny 90 32 66 18.7 45 45 S 15 24 29.71 1006 10 16.0934 0 0
5:55 pm 17:55 Sunny 88 31.2 66 19 48 48 SSE 12 19 29.71 1006 10 16.0934 0 0
6:15 pm 18:15 Sunny 87 30.6 67 19.2 51 51 S 12 19 29.71 1006 10 16.0934 0 0
6:35 pm 18:35 Sunny 87 30.4 66 18.8 50 50 SSE 10 17 29.71 1006 10 16.0934 0 0
6:55 pm 18:55 Sunny 85 29.5 66 19.1 54 54 SSE 10 17 29.68 1005 10 16.0934 0 0
7:15 pm 19:15 Sunny 85 29.2 66 18.7 53 53 SSE 12 19 29.65 1004 10 16.0934 0 0
7:35 pm 19:35 Sunny 83 28.6 65 18.5 54 54 SSE 10 17 29.68 1005 10 16.0934 0 0
7:55 pm 19:55 Sunny 82 28 65 18.5 56 56 SSE 13 20 29.65 1004 10 16.0934 0 0
8:15 pm 20:15 Sunny 82 28 65 18.5 56 56 S 13 20 29.68 1005 10 16.0934 0 0
8:35 pm 20:35 Sunny 83 28.1 65 18.1 55 55 S 10 17 29.68 1005 10 16.0934 0 0
8:55 pm 20:55 Partly Cloudy 81 27.3 66 18.8 60 60 SSE 9 15 29.71 1006 10 16.0934 0 0
9:15 pm 21:15 Mostly Cloudy with Light Rain 78 25.8 67 19.7 69 69 SSE 8 13 29.71 1006 10 16.0934 0 0
9:35 pm 21:35 Cloudy with Rain 76 24.4 69 20.6 79 79 W 6 9 29.77 1008 10 16.0934 0.01 0.254
9:55 pm 21:55 Cloudy with Thunderstorms 75 24.1 69 20.6 81 81 W 13 20 29.8 1009 10 16.0934 0.05 1.27
10:15 pm 22:15 Cloudy with Thunderstorms 74 23.1 69 20.5 85 85 SW 17 28 29.83 1010 7 11.26538 0.05 1.27
10:35 pm 22:35 Cloudy with Nearby Thunderstorms 72 22.3 68 20.2 88 88 SSW 12 19 29.83 1010 7 11.26538 0.08 2.032
10:55 pm 22:55 Cloudy with Thunderstorms 72 22.2 68 20 87 87 SSW 16 26 29.83 1010 7 11.26538 0.12 3.048
11:15 pm 23:15 Cloudy with Light Rain 73 22.5 67 19.7 84 84 SSW 20 31 29.8 1009 7 11.26538 0.06 1.524
11:35 pm 23:35 Cloudy with Rain 72 22 67 19.6 86 86 SSW 18 30 29.83 1010 7 11.26538 0.09 2.286
11:55 pm 23:55 Cloudy with Rain 72 22 67 19.7 87 87 S 17 28 29.83 1010 7 11.26538 0.14 3.556

Powered by AerisWeather